Time,TemperatureF,DewpointF,PressureIn,WindDirection,WindDirectionDegrees,WindSpeedMPH,WindSpeedGustMPH,Humidity,HourlyPrecipIn,Conditions,Clouds,dailyrainin,SoftwareType,DateUTC
2013-11-14 00:03:00,29.1,19.2,30.22,NNW,329,0.0,0.0,66,0.00,,---,0.00,VWS V14.01,2013-11-14 07:03:00,
2013-11-14 00:08:00,29.2,19.3,30.22,NNW,329,0.0,0.0,66,0.00,,---,0.00,VWS V14.01,2013-11-14 07:08:00,
2013-11-14 00:13:00,29.3,19.0,30.22,NNW,329,0.0,0.0,65,0.00,,---,0.00,VWS V14.01,2013-11-14 07:13:00,
2013-11-14 00:18:00,29.6,18.9,30.21,NNW,329,6.0,7.0,64,0.00,,---,0.00,VWS V14.01,2013-11-14 07:18:00,
2013-11-14 00:23:00,29.3,19.4,30.21,NNW,329,5.0,7.0,66,0.00,,---,0.00,VWS V14.01,2013-11-14 07:23:00,
2013-11-14 00:28:00,28.6,19.0,30.20,NNW,329,3.0,3.0,67,0.00,,---,0.00,VWS V14.01,2013-11-14 07:28:00,
2013-11-14 00:33:00,28.2,18.7,30.20,NNW,329,5.0,6.0,67,0.00,,---,0.00,VWS V14.01,2013-11-14 07:33:00,
2013-11-14 00:38:00,27.7,18.5,30.20,NNW,329,3.0,4.0,68,0.00,,---,0.00,VWS V14.01,2013-11-14 07:38:00,
2013-11-14 00:43:00,27.4,18.6,30.20,NNW,329,5.0,5.0,69,0.00,,---,0.00,VWS V14.01,2013-11-14 07:43:00,
2013-11-14 00:48:00,27.4,19.2,30.20,NNW,331,6.0,6.0,71,0.00,,---,0.00,VWS V14.01,2013-11-14 07:48:00,
2013-11-14 00:53:00,27.7,19.2,30.20,NNW,331,4.0,5.0,70,0.00,,---,0.00,VWS V14.01,2013-11-14 07:53:00,
2013-11-14 00:58:00,27.9,19.4,30.19,NNW,331,8.0,8.0,70,0.00,,---,0.00,VWS V14.01,2013-11-14 07:58:00,
2013-11-14 01:03:00,28.0,19.5,30.19,NNW,331,3.0,6.0,70,0.00,,---,0.00,VWS V14.01,2013-11-14 08:03:00,
2013-11-14 01:08:00,27.8,19.0,30.19,NNW,331,0.0,0.0,69,0.00,,---,0.00,VWS V14.01,2013-11-14 08:08:00,
2013-11-14 01:13:00,27.3,18.8,30.19,NNW,331,0.0,0.0,70,0.00,,---,0.00,VWS V14.01,2013-11-14 08:13:00,
2013-11-14 01:18:00,26.4,18.6,30.19,NNW,331,2.0,2.0,72,0.00,,---,0.00,VWS V14.01,2013-11-14 08:18:00,
2013-11-14 01:23:00,26.1,18.3,30.19,NNW,331,0.0,0.0,72,0.00,,---,0.00,VWS V14.01,2013-11-14 08:23:00,
2013-11-14 01:28:00,26.2,18.7,30.19,NNW,331,3.0,4.0,73,0.00,,---,0.00,VWS V14.01,2013-11-14 08:28:00,
2013-11-14 01:33:00,27.1,19.3,30.19,NNW,331,6.0,6.0,72,0.00,,---,0.00,VWS V14.01,2013-11-14 08:33:00,
2013-11-14 01:38:00,28.1,19.9,30.19,NNW,331,6.0,7.0,71,0.00,,---,0.00,VWS V14.01,2013-11-14 08:38:00,
2013-11-14 01:43:00,28.5,20.0,30.19,NNW,331,4.0,7.0,70,0.00,,---,0.00,VWS V14.01,2013-11-14 08:43:00,
2013-11-14 01:48:00,29.1,20.2,30.19,NNW,331,7.0,7.0,69,0.00,,---,0.00,VWS V14.01,2013-11-14 08:48:00,
2013-11-14 01:53:00,29.0,20.1,30.19,NNW,331,3.0,5.0,69,0.00,,---,0.00,VWS V14.01,2013-11-14 08:53:00,
2013-11-14 01:58:00,29.0,19.8,30.18,NNW,331,0.0,0.0,68,0.00,,---,0.00,VWS V14.01,2013-11-14 08:58:00,
2013-11-14 02:03:00,29.3,20.4,30.18,NNW,331,5.0,5.0,69,0.00,,---,0.00,VWS V14.01,2013-11-14 09:03:00,
2013-11-14 02:08:00,29.9,21.0,30.18,NNW,331,4.0,4.0,69,0.00,,---,0.00,VWS V14.01,2013-11-14 09:08:00,
2013-11-14 02:13:00,30.4,21.5,30.18,NNW,331,6.0,7.0,69,0.00,,---,0.00,VWS V14.01,2013-11-14 09:13:00,
2013-11-14 02:18:00,30.9,22.6,30.18,NNW,331,6.0,6.0,71,0.00,,---,0.00,VWS V14.01,2013-11-14 09:18:00,
2013-11-14 02:23:00,31.4,23.1,30.18,NNW,331,6.0,6.0,71,0.00,,---,0.00,VWS V14.01,2013-11-14 09:23:00,
2013-11-14 02:28:00,32.0,23.3,30.18,NNW,331,5.0,5.0,70,0.00,,---,0.00,VWS V14.01,2013-11-14 09:28:00,
2013-11-14 02:33:00,32.8,23.1,30.18,NNW,329,6.0,6.0,67,0.00,,---,0.00,VWS V14.01,2013-11-14 09:33:00,
2013-11-14 02:38:00,33.4,22.5,30.19,NW,308,6.0,7.0,64,0.00,,---,0.00,VWS V14.01,2013-11-14 09:38:00,
2013-11-14 02:43:00,33.0,22.2,30.18,NW,308,2.0,3.0,64,0.00,,---,0.00,VWS V14.01,2013-11-14 09:43:00,
2013-11-14 02:48:00,32.8,21.6,30.18,NW,308,0.0,0.0,63,0.00,,---,0.00,VWS V14.01,2013-11-14 09:48:00,
2013-11-14 02:53:00,32.8,21.6,30.18,NW,308,3.0,3.0,63,0.00,,---,0.00,VWS V14.01,2013-11-14 09:53:00,
2013-11-14 02:58:00,32.9,21.7,30.18,NW,308,3.0,3.0,63,0.00,,---,0.00,VWS V14.01,2013-11-14 09:58:00,
2013-11-14 03:03:00,33.0,21.8,30.18,NW,308,3.0,4.0,63,0.00,,---,0.00,VWS V14.01,2013-11-14 10:03:00,
2013-11-14 03:08:00,32.9,22.1,30.18,NW,308,3.0,4.0,64,0.00,,---,0.00,VWS V14.01,2013-11-14 10:08:00,
2013-11-14 03:13:00,32.8,22.3,30.18,NW,308,2.0,3.0,65,0.00,,---,0.00,VWS V14.01,2013-11-14 10:13:00,
2013-11-14 03:18:00,32.7,22.6,30.18,NW,308,3.0,5.0,66,0.00,,---,0.00,VWS V14.01,2013-11-14 10:18:00,
2013-11-14 03:23:00,32.5,22.8,30.17,NW,308,3.0,4.0,67,0.00,,---,0.00,VWS V14.01,2013-11-14 10:23:00,
2013-11-14 03:28:00,32.1,22.8,30.17,NW,308,4.0,4.0,68,0.00,,---,0.00,VWS V14.01,2013-11-14 10:28:00,
2013-11-14 03:33:00,32.0,22.6,30.17,NW,308,4.0,4.0,68,0.00,,---,0.00,VWS V14.01,2013-11-14 10:33:00,
2013-11-14 03:38:00,32.0,23.0,30.17,NW,308,0.0,0.0,69,0.00,,---,0.00,VWS V14.01,2013-11-14 10:38:00,
2013-11-14 03:44:00,31.9,22.9,30.17,NW,308,0.0,0.0,69,0.00,,---,0.00,VWS V14.01,2013-11-14 10:44:00,
2013-11-14 03:49:00,31.8,22.8,30.17,NW,308,2.0,2.0,69,0.00,,---,0.00,VWS V14.01,2013-11-14 10:49:00,
2013-11-14 03:54:00,31.7,23.0,30.17,NW,308,2.0,2.0,70,0.00,,---,0.00,VWS V14.01,2013-11-14 10:54:00,
2013-11-14 03:59:00,31.5,22.9,30.17,NW,308,0.0,0.0,70,0.00,,---,0.00,VWS V14.01,2013-11-14 10:59:00,
2013-11-14 04:04:00,31.3,22.7,30.17,NW,308,0.0,0.0,70,0.00,,---,0.00,VWS V14.01,2013-11-14 11:04:00,
2013-11-14 04:09:00,31.1,22.8,30.17,NW,308,0.0,1.0,71,0.00,,---,0.00,VWS V14.01,2013-11-14 11:09:00,
2013-11-14 04:14:00,30.8,22.9,30.17,NW,308,3.0,3.0,72,0.00,,---,0.00,VWS V14.01,2013-11-14 11:14:00,
2013-11-14 04:19:00,30.5,23.2,30.17,NW,308,1.0,3.0,74,0.00,,---,0.00,VWS V14.01,2013-11-14 11:19:00,
2013-11-14 04:24:00,30.4,23.4,30.17,NW,308,2.0,3.0,75,0.00,,---,0.00,VWS V14.01,2013-11-14 11:24:00,
2013-11-14 04:29:00,30.3,23.3,30.17,NW,308,1.0,1.0,75,0.00,,---,0.00,VWS V14.01,2013-11-14 11:29:00,
2013-11-14 04:34:00,30.2,23.6,30.16,NW,308,0.0,0.0,76,0.00,,---,0.00,VWS V14.01,2013-11-14 11:34:00,
2013-11-14 04:39:00,30.0,23.0,30.16,NW,308,0.0,0.0,75,0.00,,---,0.00,VWS V14.01,2013-11-14 11:39:00,
2013-11-14 04:44:00,29.7,23.1,30.17,NW,308,0.0,0.0,76,0.00,,---,0.00,VWS V14.01,2013-11-14 11:44:00,
2013-11-14 04:49:00,29.6,23.3,30.17,NW,308,3.0,5.0,77,0.00,,---,0.00,VWS V14.01,2013-11-14 11:49:00,
2013-11-14 04:54:00,29.6,23.6,30.16,NW,308,3.0,3.0,78,0.00,,---,0.00,VWS V14.01,2013-11-14 11:54:00,
2013-11-14 04:59:00,29.6,23.6,30.16,NW,306,1.0,3.0,78,0.00,,---,0.00,VWS V14.01,2013-11-14 11:59:00,
2013-11-14 05:04:00,29.6,23.6,30.15,NW,306,0.0,2.0,78,0.00,,---,0.00,VWS V14.01,2013-11-14 12:04:00,
2013-11-14 05:09:00,29.4,23.7,30.15,NW,306,0.0,0.0,79,0.00,,---,0.00,VWS V14.01,2013-11-14 12:09:00,
2013-11-14 05:14:00,29.2,23.5,30.15,NW,306,0.0,0.0,79,0.00,,---,0.00,VWS V14.01,2013-11-14 12:14:00,
2013-11-14 05:19:00,29.1,23.7,30.15,NW,304,3.0,5.0,80,0.00,,---,0.00,VWS V14.01,2013-11-14 12:19:00,
2013-11-14 05:24:00,29.0,23.9,30.15,NW,304,4.0,5.0,81,0.00,,---,0.00,VWS V14.01,2013-11-14 12:24:00,
2013-11-14 05:29:00,29.0,24.2,30.15,NW,304,2.0,2.0,82,0.00,,---,0.00,VWS V14.01,2013-11-14 12:29:00,
2013-11-14 05:34:00,29.1,23.7,30.15,NW,304,3.0,3.0,80,0.00,,---,0.00,VWS V14.01,2013-11-14 12:34:00,
2013-11-14 05:39:00,28.5,22.2,30.15,NW,304,4.0,6.0,77,0.00,,---,0.00,VWS V14.01,2013-11-14 12:39:00,
2013-11-14 05:44:00,27.8,22.4,30.15,NW,304,3.0,5.0,80,0.00,,---,0.00,VWS V14.01,2013-11-14 12:44:00,
2013-11-14 05:49:00,27.4,22.0,30.15,NW,304,3.0,5.0,80,0.00,,---,0.00,VWS V14.01,2013-11-14 12:49:00,
2013-11-14 05:54:00,27.4,22.4,30.15,NW,304,2.0,2.0,81,0.00,,---,0.00,VWS V14.01,2013-11-14 12:54:00,
2013-11-14 05:59:00,27.3,22.5,30.15,NW,304,4.0,5.0,82,0.00,,---,0.00,VWS V14.01,2013-11-14 12:59:00,
2013-11-14 06:04:00,27.0,22.2,30.14,NW,314,3.0,5.0,82,0.00,,---,0.00,VWS V14.01,2013-11-14 13:04:00,
2013-11-14 06:09:00,26.8,22.0,30.14,NW,314,5.0,7.0,82,0.00,,---,0.00,VWS V14.01,2013-11-14 13:09:00,
2013-11-14 06:14:00,26.8,22.3,30.14,NW,315,5.0,7.0,83,0.00,,---,0.00,VWS V14.01,2013-11-14 13:14:00,
2013-11-14 06:19:00,26.8,22.0,30.14,NW,315,3.0,3.0,82,0.00,,---,0.00,VWS V14.01,2013-11-14 13:19:00,
2013-11-14 06:24:00,26.7,22.0,30.14,NW,315,4.0,5.0,82,0.00,,---,0.00,VWS V14.01,2013-11-14 13:24:00,
2013-11-14 06:29:00,26.7,22.0,30.14,NW,315,3.0,5.0,82,0.00,,---,0.00,VWS V14.01,2013-11-14 13:29:00,
2013-11-14 06:34:00,26.9,22.7,30.14,NW,315,5.0,5.0,84,0.00,,---,0.00,VWS V14.01,2013-11-14 13:34:00,
2013-11-14 06:39:00,26.7,22.0,30.14,NW,315,4.0,4.0,82,0.00,,---,0.00,VWS V14.01,2013-11-14 13:39:00,
2013-11-14 06:44:00,26.5,21.5,30.14,NW,315,5.0,5.0,81,0.00,,---,0.00,VWS V14.01,2013-11-14 13:44:00,
2013-11-14 06:49:00,25.7,20.4,30.14,NW,317,8.0,9.0,80,0.00,,---,0.00,VWS V14.01,2013-11-14 13:49:00,
2013-11-14 06:54:00,24.9,20.2,30.15,NW,317,3.0,6.0,82,0.00,,---,0.00,VWS V14.01,2013-11-14 13:54:00,
2013-11-14 06:59:00,24.9,21.0,30.15,NW,317,6.0,6.0,85,0.00,,---,0.00,VWS V14.01,2013-11-14 13:59:00,
2013-11-14 07:04:00,25.1,21.2,30.15,NW,317,5.0,5.0,85,0.00,,---,0.00,VWS V14.01,2013-11-14 14:04:00,
2013-11-14 07:09:00,25.0,20.6,30.15,NW,318,7.0,9.0,83,0.00,,---,0.00,VWS V14.01,2013-11-14 14:09:00,
2013-11-14 07:14:00,24.3,19.9,30.15,NW,319,7.0,7.0,83,0.00,,---,0.00,VWS V14.01,2013-11-14 14:14:00,
2013-11-14 07:19:00,23.9,19.8,30.15,NW,319,7.0,8.0,84,0.00,,---,0.00,VWS V14.01,2013-11-14 14:19:00,
2013-11-14 07:24:00,23.9,21.9,30.15,NW,320,8.0,8.0,92,0.00,,---,0.00,VWS V14.01,2013-11-14 14:24:00,
2013-11-14 07:29:00,24.9,21.3,30.15,NW,320,5.0,5.0,86,0.00,,---,0.00,VWS V14.01,2013-11-14 14:29:00,
2013-11-14 07:34:00,25.7,21.8,30.15,NW,320,6.0,7.0,85,0.00,,---,0.00,VWS V14.01,2013-11-14 14:34:00,
2013-11-14 07:39:00,26.7,22.5,30.16,NW,320,4.0,4.0,84,0.00,,---,0.00,VWS V14.01,2013-11-14 14:39:00,
2013-11-14 07:44:00,27.3,23.1,30.16,NW,320,3.0,6.0,84,0.00,,---,0.00,VWS V14.01,2013-11-14 14:44:00,
2013-11-14 07:47:00,27.6,23.4,30.16,NW,320,7.0,8.0,84,0.00,,---,0.00,VWS V14.01,2013-11-14 14:47:00,
2013-11-14 07:52:00,27.8,23.0,30.16,NW,321,7.0,7.0,82,0.00,,---,0.00,VWS V14.01,2013-11-14 14:52:00,
2013-11-14 07:57:00,28.1,23.3,30.16,NW,321,6.0,7.0,82,0.00,,---,0.00,VWS V14.01,2013-11-14 14:57:00,
2013-11-14 08:02:00,28.5,23.4,30.16,NW,321,5.0,7.0,81,0.00,,---,0.00,VWS V14.01,2013-11-14 15:02:00,
2013-11-14 08:07:00,29.5,24.1,30.16,NW,321,3.0,5.0,80,0.00,,---,0.00,VWS V14.01,2013-11-14 15:07:00,
2013-11-14 08:12:00,30.8,24.8,30.16,NW,321,3.0,3.0,78,0.00,,---,0.00,VWS V14.01,2013-11-14 15:12:00,
2013-11-14 08:17:00,31.4,25.0,30.16,NW,321,2.0,3.0,77,0.00,,---,0.00,VWS V14.01,2013-11-14 15:17:00,
2013-11-14 08:22:00,31.5,24.5,30.15,NW,321,3.0,3.0,75,0.00,,---,0.00,VWS V14.01,2013-11-14 15:22:00,
2013-11-14 08:27:00,31.6,24.6,30.15,NW,321,0.0,0.0,75,0.00,,---,0.00,VWS V14.01,2013-11-14 15:27:00,
2013-11-14 08:32:00,31.4,25.0,30.15,NW,321,0.0,0.0,77,0.00,,---,0.00,VWS V14.01,2013-11-14 15:32:00,
2013-11-14 08:37:00,31.9,24.9,30.15,NW,321,4.0,4.0,75,0.00,,---,0.00,VWS V14.01,2013-11-14 15:37:00,
2013-11-14 08:42:00,32.2,25.2,30.15,NW,321,3.0,4.0,75,0.00,,---,0.00,VWS V14.01,2013-11-14 15:42:00,
2013-11-14 08:47:00,32.7,25.3,30.15,NW,321,0.0,3.0,74,0.00,,---,0.00,VWS V14.01,2013-11-14 15:47:00,
2013-11-14 08:52:00,32.8,24.8,30.15,NW,321,2.0,2.0,72,0.00,,---,0.00,VWS V14.01,2013-11-14 15:52:00,
2013-11-14 08:57:00,33.5,25.1,30.14,NW,321,4.0,4.0,71,0.00,,---,0.00,VWS V14.01,2013-11-14 15:57:00,
2013-11-14 09:02:00,33.8,25.1,30.14,NW,321,0.0,0.0,70,0.00,,---,0.00,VWS V14.01,2013-11-14 16:02:00,
2013-11-14 09:07:00,34.2,25.1,30.14,NW,321,3.0,3.0,69,0.00,,---,0.00,VWS V14.01,2013-11-14 16:07:00,
2013-11-14 09:12:00,34.3,24.5,30.14,NW,321,0.0,0.0,67,0.00,,---,0.00,VWS V14.01,2013-11-14 16:12:00,
2013-11-14 09:17:00,35.3,24.7,30.14,NW,321,0.0,0.0,65,0.00,,---,0.00,VWS V14.01,2013-11-14 16:17:00,
2013-11-14 09:22:00,35.1,24.5,30.13,NW,321,0.0,0.0,65,0.00,,---,0.00,VWS V14.01,2013-11-14 16:22:00,
2013-11-14 09:27:00,35.2,23.5,30.13,NW,321,0.0,0.0,62,0.00,,---,0.00,VWS V14.01,2013-11-14 16:27:00,
2013-11-14 09:32:00,37.0,24.0,30.13,NW,321,3.0,3.0,59,0.00,,---,0.00,VWS V14.01,2013-11-14 16:32:00,
2013-11-14 09:37:00,36.6,22.8,30.12,NW,321,4.0,4.0,57,0.00,,---,0.00,VWS V14.01,2013-11-14 16:37:00,
2013-11-14 09:42:00,37.3,23.5,30.12,NW,321,0.0,2.0,57,0.00,,---,0.00,VWS V14.01,2013-11-14 16:42:00,
2013-11-14 09:47:00,37.0,21.0,30.13,NW,321,1.0,1.0,52,0.00,,---,0.00,VWS V14.01,2013-11-14 16:47:00,
2013-11-14 09:52:00,36.3,21.3,30.12,NW,321,1.0,3.0,54,0.00,,---,0.00,VWS V14.01,2013-11-14 16:52:00,
2013-11-14 09:57:00,37.7,22.6,30.12,NW,321,5.0,5.0,54,0.00,,---,0.00,VWS V14.01,2013-11-14 16:57:00,
2013-11-14 10:02:00,37.6,22.0,30.12,NW,321,4.0,7.0,53,0.00,,---,0.00,VWS V14.01,2013-11-14 17:02:00,
2013-11-14 10:07:00,37.7,21.7,30.12,NW,321,2.0,3.0,52,0.00,,---,0.00,VWS V14.01,2013-11-14 17:07:00,
2013-11-14 10:13:00,37.9,22.3,30.11,NW,321,4.0,5.0,53,0.00,,---,0.00,VWS V14.01,2013-11-14 17:13:00,
2013-11-14 10:18:00,38.0,21.5,30.11,NW,321,0.0,2.0,51,0.00,,---,0.00,VWS V14.01,2013-11-14 17:18:00,
2013-11-14 10:23:00,38.1,19.7,30.11,NW,321,0.0,2.0,47,0.00,,---,0.00,VWS V14.01,2013-11-14 17:23:00,
2013-11-14 10:28:00,38.6,19.6,30.10,NW,321,1.0,4.0,46,0.00,,---,0.00,VWS V14.01,2013-11-14 17:28:00,
2013-11-14 10:33:00,40.0,20.4,30.10,NW,319,5.0,6.0,45,0.00,,---,0.00,VWS V14.01,2013-11-14 17:33:00,
2013-11-14 10:38:00,39.8,20.2,30.10,WNW,291,4.0,8.0,45,0.00,,---,0.00,VWS V14.01,2013-11-14 17:38:00,
2013-11-14 10:43:00,40.0,20.4,30.10,WNW,286,6.0,6.0,45,0.00,,---,0.00,VWS V14.01,2013-11-14 17:43:00,
2013-11-14 10:48:00,40.7,19.4,30.10,WNW,286,3.0,3.0,42,0.00,,---,0.00,VWS V14.01,2013-11-14 17:48:00,
2013-11-14 10:53:00,40.9,18.5,30.10,WNW,285,0.0,2.0,40,0.00,,---,0.00,VWS V14.01,2013-11-14 17:53:00,
2013-11-14 10:58:00,40.8,15.9,30.09,West,281,2.0,4.0,36,0.00,,---,0.00,VWS V14.01,2013-11-14 17:58:00,
2013-11-14 11:03:00,41.2,16.3,30.09,WNW,294,7.0,8.0,36,0.00,,---,0.00,VWS V14.01,2013-11-14 18:03:00,
2013-11-14 11:08:00,41.4,17.1,30.09,WNW,294,0.0,1.0,37,0.00,,---,0.00,VWS V14.01,2013-11-14 18:08:00,
2013-11-14 11:13:00,41.8,18.1,30.08,WNW,292,6.0,6.0,38,0.00,,---,0.00,VWS V14.01,2013-11-14 18:13:00,
2013-11-14 11:18:00,41.6,17.3,30.08,SSW,208,6.0,7.0,37,0.00,,---,0.00,VWS V14.01,2013-11-14 18:18:00,
2013-11-14 11:23:00,41.8,15.5,30.08,SW,222,2.0,4.0,34,0.00,,---,0.00,VWS V14.01,2013-11-14 18:23:00,
2013-11-14 11:28:00,42.6,17.5,30.07,SW,223,7.0,8.0,36,0.00,,---,0.00,VWS V14.01,2013-11-14 18:28:00,
2013-11-14 11:33:00,42.8,20.2,30.07,SW,218,10.0,12.0,40,0.00,,---,0.00,VWS V14.01,2013-11-14 18:33:00,
2013-11-14 11:38:00,42.3,19.1,30.07,WSW,237,8.0,11.0,39,0.00,,---,0.00,VWS V14.01,2013-11-14 18:38:00,
2013-11-14 11:43:00,42.6,18.8,30.07,SSW,198,7.0,13.0,38,0.00,,---,0.00,VWS V14.01,2013-11-14 18:43:00,
2013-11-14 11:48:00,42.8,17.7,30.06,SSW,198,14.0,15.0,36,0.00,,---,0.00,VWS V14.01,2013-11-14 18:48:00,
2013-11-14 11:53:00,43.6,16.4,30.06,WSW,243,4.0,9.0,33,0.00,,---,0.00,VWS V14.01,2013-11-14 18:53:00,
2013-11-14 11:58:00,43.5,16.3,30.05,SW,216,11.0,11.0,33,0.00,,---,0.00,VWS V14.01,2013-11-14 18:58:00,
2013-11-14 12:03:00,43.9,15.2,30.05,West,273,9.0,13.0,31,0.00,,---,0.00,VWS V14.01,2013-11-14 19:03:00,
2013-11-14 12:08:00,43.1,14.5,30.05,West,267,3.0,6.0,31,0.00,,---,0.00,VWS V14.01,2013-11-14 19:08:00,
2013-11-14 12:13:00,43.6,13.5,30.04,West,266,11.0,11.0,29,0.00,,---,0.00,VWS V14.01,2013-11-14 19:13:00,
2013-11-14 12:18:00,43.8,13.6,30.04,SW,234,10.0,13.0,29,0.00,,---,0.00,VWS V14.01,2013-11-14 19:18:00,
2013-11-14 12:23:00,44.5,15.0,30.04,WSW,247,9.0,15.0,30,0.00,,---,0.00,VWS V14.01,2013-11-14 19:23:00,
2013-11-14 12:28:00,44.3,14.8,30.03,SW,233,1.0,9.0,30,0.00,,---,0.00,VWS V14.01,2013-11-14 19:28:00,
2013-11-14 12:33:00,43.4,14.8,30.03,SW,232,6.0,9.0,31,0.00,,---,0.00,VWS V14.01,2013-11-14 19:33:00,
2013-11-14 12:38:00,42.9,13.6,30.03,WSW,250,7.0,9.0,30,0.00,,---,0.00,VWS V14.01,2013-11-14 19:38:00,
2013-11-14 12:43:00,43.7,14.3,30.02,SW,227,6.0,8.0,30,0.00,,---,0.00,VWS V14.01,2013-11-14 19:43:00,
2013-11-14 12:48:00,43.8,13.6,30.02,WSW,252,4.0,5.0,29,0.00,,---,0.00,VWS V14.01,2013-11-14 19:48:00,
2013-11-14 12:53:00,44.0,15.3,30.02,WSW,252,8.0,13.0,31,0.00,,---,0.00,VWS V14.01,2013-11-14 19:53:00,
2013-11-14 12:58:00,44.6,15.1,30.02,SW,236,8.0,8.0,30,0.00,,---,0.00,VWS V14.01,2013-11-14 19:58:00,
2013-11-14 13:03:00,44.1,14.7,30.02,SW,228,11.0,11.0,30,0.00,,---,0.00,VWS V14.01,2013-11-14 20:03:00,
2013-11-14 13:08:00,44.4,14.1,30.02,WSW,244,12.0,12.0,29,0.00,,---,0.00,VWS V14.01,2013-11-14 20:08:00,
2013-11-14 13:13:00,44.5,14.2,30.01,SW,236,13.0,14.0,29,0.00,,---,0.00,VWS V14.01,2013-11-14 20:13:00,
2013-11-14 13:18:00,44.3,14.1,30.01,WSW,245,9.0,12.0,29,0.00,,---,0.00,VWS V14.01,2013-11-14 20:18:00,
2013-11-14 13:23:00,44.3,13.3,30.01,SW,229,9.0,9.0,28,0.00,,---,0.00,VWS V14.01,2013-11-14 20:23:00,
2013-11-14 13:28:00,44.6,11.9,30.01,WSW,251,2.0,2.0,26,0.00,,---,0.00,VWS V14.01,2013-11-14 20:28:00,
2013-11-14 13:33:00,44.2,10.6,30.00,SW,225,4.0,4.0,25,0.00,,---,0.00,VWS V14.01,2013-11-14 20:33:00,
2013-11-14 13:38:00,45.0,11.3,30.01,SW,228,1.0,1.0,25,0.00,,---,0.00,VWS V14.01,2013-11-14 20:38:00,
2013-11-14 13:43:00,45.4,11.6,30.01,West,261,3.0,5.0,25,0.00,,---,0.00,VWS V14.01,2013-11-14 20:43:00,
2013-11-14 13:48:00,45.2,9.6,30.01,West,279,2.0,4.0,23,0.00,,---,0.00,VWS V14.01,2013-11-14 20:48:00,
2013-11-14 13:53:00,45.3,9.7,30.01,West,263,12.0,12.0,23,0.00,,---,0.00,VWS V14.01,2013-11-14 20:53:00,
2013-11-14 13:58:00,45.3,9.7,30.01,WNW,294,8.0,9.0,23,0.00,,---,0.00,VWS V14.01,2013-11-14 20:58:00,
2013-11-14 14:03:00,45.2,10.6,30.01,West,276,9.0,9.0,24,0.00,,---,0.00,VWS V14.01,2013-11-14 21:03:00,
2013-11-14 14:08:00,45.4,11.6,30.01,NW,315,8.0,8.0,25,0.00,,---,0.00,VWS V14.01,2013-11-14 21:08:00,
2013-11-14 14:13:00,44.3,11.6,30.00,NW,311,11.0,11.0,26,0.00,,---,0.00,VWS V14.01,2013-11-14 21:13:00,
2013-11-14 14:19:00,44.1,12.3,30.00,WNW,292,13.0,14.0,27,0.00,,---,0.00,VWS V14.01,2013-11-14 21:19:00,
2013-11-14 14:24:00,44.7,11.9,30.00,WNW,283,6.0,6.0,26,0.00,,---,0.00,VWS V14.01,2013-11-14 21:24:00,
2013-11-14 14:29:00,45.6,11.8,30.00,West,273,6.0,9.0,25,0.00,,---,0.00,VWS V14.01,2013-11-14 21:29:00,
2013-11-14 14:34:00,45.2,11.5,30.00,NW,309,5.0,7.0,25,0.00,,---,0.00,VWS V14.01,2013-11-14 21:34:00,
2013-11-14 14:39:00,44.5,11.8,29.99,WNW,302,9.0,10.0,26,0.00,,---,0.00,VWS V14.01,2013-11-14 21:39:00,
2013-11-14 14:44:00,44.4,13.4,29.99,WNW,284,10.0,10.0,28,0.00,,---,0.00,VWS V14.01,2013-11-14 21:44:00,
2013-11-14 14:49:00,45.4,13.4,29.99,WNW,283,12.0,12.0,27,0.00,,---,0.00,VWS V14.01,2013-11-14 21:49:00,
2013-11-14 14:54:00,44.7,15.2,29.99,West,273,13.0,14.0,30,0.00,,---,0.00,VWS V14.01,2013-11-14 21:54:00,
2013-11-14 14:59:00,44.7,15.2,29.99,WNW,294,7.0,11.0,30,0.00,,---,0.00,VWS V14.01,2013-11-14 21:59:00,
2013-11-14 15:04:00,44.7,15.9,29.99,WNW,285,10.0,11.0,31,0.00,,---,0.00,VWS V14.01,2013-11-14 22:04:00,
2013-11-14 15:09:00,43.7,14.3,29.98,WNW,298,11.0,12.0,30,0.00,,---,0.00,VWS V14.01,2013-11-14 22:09:00,
2013-11-14 15:14:00,43.2,14.6,29.98,WNW,291,7.0,10.0,31,0.00,,---,0.00,VWS V14.01,2013-11-14 22:14:00,
2013-11-14 15:19:00,43.1,14.5,29.98,West,279,9.0,10.0,31,0.00,,---,0.00,VWS V14.01,2013-11-14 22:19:00,
2013-11-14 15:24:00,42.9,15.1,29.98,WNW,295,11.0,11.0,32,0.00,,---,0.00,VWS V14.01,2013-11-14 22:24:00,
2013-11-14 15:29:00,42.5,16.1,29.99,WNW,299,7.0,7.0,34,0.00,,---,0.00,VWS V14.01,2013-11-14 22:29:00,
2013-11-14 15:34:00,42.2,16.5,29.99,WNW,290,6.0,10.0,35,0.00,,---,0.00,VWS V14.01,2013-11-14 22:34:00,
2013-11-14 15:39:00,41.6,16.0,29.99,WNW,290,6.0,9.0,35,0.00,,---,0.00,VWS V14.01,2013-11-14 22:39:00,
2013-11-14 15:44:00,41.7,17.4,29.98,WNW,289,7.0,8.0,37,0.00,,---,0.00,VWS V14.01,2013-11-14 22:44:00,
2013-11-14 15:49:00,41.6,16.6,29.98,WNW,290,4.0,6.0,36,0.00,,---,0.00,VWS V14.01,2013-11-14 22:49:00,
2013-11-14 15:54:00,41.5,16.5,29.98,WNW,289,3.0,6.0,36,0.00,,---,0.00,VWS V14.01,2013-11-14 22:54:00,
2013-11-14 15:59:00,41.3,16.4,29.97,WNW,290,4.0,7.0,36,0.00,,---,0.00,VWS V14.01,2013-11-14 22:59:00,
2013-11-14 16:04:00,41.1,16.8,29.97,WNW,290,3.0,4.0,37,0.00,,---,0.00,VWS V14.01,2013-11-14 23:04:00,
2013-11-14 16:09:00,41.2,16.9,29.97,WNW,290,2.0,4.0,37,0.00,,---,0.00,VWS V14.01,2013-11-14 23:09:00,
2013-11-14 16:14:00,40.5,16.3,29.97,WNW,288,4.0,5.0,37,0.00,,---,0.00,VWS V14.01,2013-11-14 23:14:00,
2013-11-14 16:19:00,40.0,16.5,29.97,WNW,288,6.0,8.0,38,0.00,,---,0.00,VWS V14.01,2013-11-14 23:19:00,
2013-11-14 16:24:00,39.9,16.4,29.97,WNW,289,5.0,7.0,38,0.00,,---,0.00,VWS V14.01,2013-11-14 23:24:00,
2013-11-14 16:29:00,39.5,16.0,29.97,WNW,289,6.0,7.0,38,0.00,,---,0.00,VWS V14.01,2013-11-14 23:29:00,
2013-11-14 16:34:00,39.1,16.2,29.97,WNW,289,6.0,8.0,39,0.00,,---,0.00,VWS V14.01,2013-11-14 23:34:00,
2013-11-14 16:39:00,38.6,15.8,29.97,WNW,289,5.0,6.0,39,0.00,,---,0.00,VWS V14.01,2013-11-14 23:39:00,
2013-11-14 16:44:00,38.2,16.0,29.97,WNW,289,3.0,3.0,40,0.00,,---,0.00,VWS V14.01,2013-11-14 23:44:00,
2013-11-14 16:49:00,37.8,16.2,29.97,WNW,289,6.0,6.0,41,0.00,,---,0.00,VWS V14.01,2013-11-14 23:49:00,
2013-11-14 16:54:00,37.5,16.5,29.97,WNW,289,4.0,5.0,42,0.00,,---,0.00,VWS V14.01,2013-11-14 23:54:00,
2013-11-14 16:59:00,37.1,16.7,29.97,WNW,289,0.0,0.0,43,0.00,,---,0.00,VWS V14.01,2013-11-14 23:59:00,
2013-11-14 17:04:00,36.6,17.3,29.96,WNW,289,0.0,0.0,45,0.00,,---,0.00,VWS V14.01,2013-11-15 00:04:00,
2013-11-14 17:09:00,35.6,17.9,29.97,WNW,289,3.0,3.0,48,0.00,,---,0.00,VWS V14.01,2013-11-15 00:09:00,
2013-11-14 17:14:00,34.6,17.9,29.97,WNW,289,3.0,3.0,50,0.00,,---,0.00,VWS V14.01,2013-11-15 00:14:00,
2013-11-14 17:19:00,33.9,17.2,29.97,WNW,289,3.0,3.0,50,0.00,,---,0.00,VWS V14.01,2013-11-15 00:19:00,
2013-11-14 17:24:00,33.8,17.6,29.97,WNW,289,4.0,4.0,51,0.00,,---,0.00,VWS V14.01,2013-11-15 00:24:00,
2013-11-14 17:29:00,33.0,17.8,29.97,WNW,289,5.0,5.0,53,0.00,,---,0.00,VWS V14.01,2013-11-15 00:29:00,
2013-11-14 17:34:00,32.7,17.9,29.97,WNW,289,5.0,5.0,54,0.00,,---,0.00,VWS V14.01,2013-11-15 00:34:00,
2013-11-14 17:39:00,32.7,17.0,29.97,WNW,289,3.0,3.0,52,0.00,,---,0.00,VWS V14.01,2013-11-15 00:39:00,
2013-11-14 17:44:00,33.3,16.7,29.96,WNW,290,3.0,4.0,50,0.00,,---,0.00,VWS V14.01,2013-11-15 00:44:00,
2013-11-14 17:49:00,33.4,17.7,29.96,WNW,290,5.0,5.0,52,0.00,,---,0.00,VWS V14.01,2013-11-15 00:49:00,
2013-11-14 17:54:00,31.8,17.5,29.96,WNW,298,8.0,8.0,55,0.00,,---,0.00,VWS V14.01,2013-11-15 00:54:00,
2013-11-14 17:59:00,30.5,17.5,29.97,NW,306,9.0,10.0,58,0.00,,---,0.00,VWS V14.01,2013-11-15 00:59:00,
2013-11-14 18:04:00,30.1,17.5,29.97,NW,310,7.0,8.0,59,0.00,,---,0.00,VWS V14.01,2013-11-15 01:04:00,
2013-11-14 18:09:00,29.6,17.8,29.97,NW,323,10.0,10.0,61,0.00,,---,0.00,VWS V14.01,2013-11-15 01:09:00,
2013-11-14 18:14:00,28.7,18.1,29.97,NNW,338,12.0,13.0,64,0.00,,---,0.00,VWS V14.01,2013-11-15 01:14:00,
2013-11-14 18:19:00,28.6,18.0,29.97,NNW,339,10.0,12.0,64,0.00,,---,0.00,VWS V14.01,2013-11-15 01:19:00,
2013-11-14 18:24:00,28.3,18.1,29.97,NNW,339,11.0,12.0,65,0.00,,---,0.00,VWS V14.01,2013-11-15 01:24:00,
2013-11-14 18:29:00,28.1,17.9,29.97,NNW,338,7.0,8.0,65,0.00,,---,0.00,VWS V14.01,2013-11-15 01:29:00,
2013-11-14 18:35:00,28.0,17.4,29.97,NNW,336,8.0,8.0,64,0.00,,---,0.00,VWS V14.01,2013-11-15 01:35:00,
2013-11-14 18:40:00,28.1,17.1,29.97,NNW,335,8.0,8.0,63,0.00,,---,0.00,VWS V14.01,2013-11-15 01:40:00,
2013-11-14 18:45:00,27.7,17.8,29.97,NNW,341,10.0,12.0,66,0.00,,---,0.00,VWS V14.01,2013-11-15 01:45:00,
2013-11-14 18:50:00,27.3,17.8,29.97,NNW,342,11.0,11.0,67,0.00,,---,0.00,VWS V14.01,2013-11-15 01:50:00,
2013-11-14 18:55:00,26.7,17.2,29.97,NNW,342,8.0,10.0,67,0.00,,---,0.00,VWS V14.01,2013-11-15 01:55:00,
2013-11-14 19:00:00,26.7,16.9,29.97,NNW,342,4.0,4.0,66,0.00,,---,0.00,VWS V14.01,2013-11-15 02:00:00,
2013-11-14 19:05:00,27.2,16.6,29.97,NNW,342,4.0,7.0,64,0.00,,---,0.00,VWS V14.01,2013-11-15 02:05:00,
2013-11-14 19:10:00,27.2,16.6,29.97,NNW,342,4.0,4.0,64,0.00,,---,0.00,VWS V14.01,2013-11-15 02:10:00,
2013-11-14 19:15:00,27.3,16.8,29.97,NNW,342,2.0,7.0,64,0.00,,---,0.00,VWS V14.01,2013-11-15 02:15:00,
2013-11-14 19:20:00,27.2,16.3,29.97,NNW,342,3.0,3.0,63,0.00,,---,0.00,VWS V14.01,2013-11-15 02:20:00,
2013-11-14 19:25:00,27.0,16.5,29.97,NNW,342,0.0,0.0,64,0.00,,---,0.00,VWS V14.01,2013-11-15 02:25:00,
2013-11-14 19:30:00,26.7,16.2,29.97,NNW,342,3.0,4.0,64,0.00,,---,0.00,VWS V14.01,2013-11-15 02:30:00,
2013-11-14 19:35:00,26.2,16.4,29.97,NNW,342,2.0,7.0,66,0.00,,---,0.00,VWS V14.01,2013-11-15 02:35:00,
2013-11-14 19:40:00,25.8,16.0,29.97,NNW,341,2.0,6.0,66,0.00,,---,0.00,VWS V14.01,2013-11-15 02:40:00,
2013-11-14 19:45:00,25.8,16.0,29.97,NNW,341,3.0,5.0,66,0.00,,---,0.00,VWS V14.01,2013-11-15 02:45:00,
2013-11-14 19:50:00,25.8,16.0,29.97,NNW,343,6.0,7.0,66,0.00,,---,0.00,VWS V14.01,2013-11-15 02:50:00,
2013-11-14 19:55:00,25.7,15.6,29.97,NNW,343,5.0,7.0,65,0.00,,---,0.00,VWS V14.01,2013-11-15 02:55:00,
2013-11-14 20:00:00,25.4,15.6,29.97,NNW,343,5.0,6.0,66,0.00,,---,0.00,VWS V14.01,2013-11-15 03:00:00,
2013-11-14 20:05:00,24.6,15.2,29.97,NNW,343,6.0,7.0,67,0.00,,---,0.00,VWS V14.01,2013-11-15 03:05:00,
2013-11-14 20:10:00,24.4,15.0,29.97,NNW,343,6.0,7.0,67,0.00,,---,0.00,VWS V14.01,2013-11-15 03:10:00,
2013-11-14 20:15:00,24.2,15.2,29.97,NNW,343,5.0,5.0,68,0.00,,---,0.00,VWS V14.01,2013-11-15 03:15:00,
2013-11-14 20:20:00,24.1,15.1,29.97,NNW,343,5.0,6.0,68,0.00,,---,0.00,VWS V14.01,2013-11-15 03:20:00,
2013-11-14 20:25:00,23.9,15.2,29.97,NNW,342,6.0,8.0,69,0.00,,---,0.00,VWS V14.01,2013-11-15 03:25:00,
2013-11-14 20:30:00,24.0,15.3,29.97,NNW,340,7.0,8.0,69,0.00,,---,0.00,VWS V14.01,2013-11-15 03:30:00,
2013-11-14 20:35:00,24.3,15.3,29.97,NNW,340,5.0,9.0,68,0.00,,---,0.00,VWS V14.01,2013-11-15 03:35:00,
2013-11-14 20:40:00,24.0,15.0,29.97,NNW,340,0.0,0.0,68,0.00,,---,0.00,VWS V14.01,2013-11-15 03:40:00,
2013-11-14 20:45:00,23.9,14.9,29.98,NNW,340,8.0,8.0,68,0.00,,---,0.00,VWS V14.01,2013-11-15 03:45:00,
2013-11-14 20:50:00,23.5,14.8,29.98,NNW,340,7.0,7.0,69,0.00,,---,0.00,VWS V14.01,2013-11-15 03:50:00,
2013-11-14 20:55:00,23.6,14.6,29.97,NNW,340,3.0,3.0,68,0.00,,---,0.00,VWS V14.01,2013-11-15 03:55:00,
2013-11-14 21:00:00,24.0,14.3,29.97,NNW,340,6.0,6.0,66,0.00,,---,0.00,VWS V14.01,2013-11-15 04:00:00,
2013-11-14 21:05:00,23.7,14.0,29.97,NNW,340,3.0,3.0,66,0.00,,---,0.00,VWS V14.01,2013-11-15 04:05:00,
2013-11-14 21:10:00,23.3,14.6,29.97,NNW,340,0.0,0.0,69,0.00,,---,0.00,VWS V14.01,2013-11-15 04:10:00,
2013-11-14 21:15:00,22.9,14.3,29.97,NNW,340,6.0,8.0,69,0.00,,---,0.00,VWS V14.01,2013-11-15 04:15:00,
2013-11-14 21:20:00,22.5,14.2,29.97,NNW,340,2.0,2.0,70,0.00,,---,0.00,VWS V14.01,2013-11-15 04:20:00,
2013-11-14 21:25:00,22.0,13.7,29.97,NNW,340,5.0,5.0,70,0.00,,---,0.00,VWS V14.01,2013-11-15 04:25:00,
2013-11-14 21:30:00,21.9,14.9,29.98,NNW,340,3.0,3.0,74,0.00,,---,0.00,VWS V14.01,2013-11-15 04:30:00,
2013-11-14 21:35:00,21.8,14.8,29.98,NNW,340,3.0,3.0,74,0.00,,---,0.00,VWS V14.01,2013-11-15 04:35:00,
2013-11-14 21:40:00,21.8,14.8,29.98,NNW,340,3.0,4.0,74,0.00,,---,0.00,VWS V14.01,2013-11-15 04:40:00,
2013-11-14 21:45:00,22.0,15.0,29.98,NNW,340,5.0,5.0,74,0.00,,---,0.00,VWS V14.01,2013-11-15 04:45:00,
2013-11-14 21:50:00,21.5,13.9,29.98,NNW,340,3.0,4.0,72,0.00,,---,0.00,VWS V14.01,2013-11-15 04:50:00,
2013-11-14 21:55:00,21.4,14.1,29.97,NNW,340,3.0,4.0,73,0.00,,---,0.00,VWS V14.01,2013-11-15 04:55:00,
2013-11-14 22:00:00,21.8,14.2,29.97,NNW,340,3.0,3.0,72,0.00,,---,0.00,VWS V14.01,2013-11-15 05:00:00,
2013-11-14 22:01:00,21.9,14.3,29.97,NNW,340,3.0,3.0,72,0.00,,---,0.00,VWS V14.01,2013-11-15 05:01:00,
2013-11-14 22:06:00,22.5,14.5,29.97,NNW,340,0.0,0.0,71,0.00,,---,0.00,VWS V14.01,2013-11-15 05:06:00,
2013-11-14 22:11:00,22.5,14.2,29.97,NNW,340,4.0,5.0,70,0.00,,---,0.00,VWS V14.01,2013-11-15 05:11:00,
2013-11-14 22:16:00,21.9,13.6,29.97,NNW,340,6.0,6.0,70,0.00,,---,0.00,VWS V14.01,2013-11-15 05:16:00,
2013-11-14 22:22:00,21.3,13.4,29.96,NNW,339,9.0,11.0,71,0.00,,---,0.00,VWS V14.01,2013-11-15 05:22:00,
2013-11-14 22:27:00,21.1,13.2,29.96,NNW,335,8.0,9.0,71,0.00,,---,0.00,VWS V14.01,2013-11-15 05:27:00,
2013-11-14 22:32:00,20.9,13.0,29.96,NNW,335,3.0,3.0,71,0.00,,---,0.00,VWS V14.01,2013-11-15 05:32:00,
2013-11-14 22:37:00,20.7,13.1,29.96,NNW,335,0.0,0.0,72,0.00,,---,0.00,VWS V14.01,2013-11-15 05:37:00,
2013-11-14 22:42:00,20.5,12.9,29.96,NNW,335,0.0,0.0,72,0.00,,---,0.00,VWS V14.01,2013-11-15 05:42:00,
2013-11-14 22:47:00,20.5,12.9,29.95,NNW,335,3.0,3.0,72,0.00,,---,0.00,VWS V14.01,2013-11-15 05:47:00,
2013-11-14 22:52:00,20.8,13.2,29.96,NNW,335,0.0,0.0,72,0.00,,---,0.00,VWS V14.01,2013-11-15 05:52:00,
2013-11-14 22:57:00,20.9,13.0,29.95,NNW,335,0.0,0.0,71,0.00,,---,0.00,VWS V14.01,2013-11-15 05:57:00,
2013-11-14 23:02:00,20.7,13.1,29.95,NNW,335,0.0,0.0,72,0.00,,---,0.00,VWS V14.01,2013-11-15 06:02:00,
2013-11-14 23:07:00,20.2,12.9,29.95,NNW,335,2.0,3.0,73,0.00,,---,0.00,VWS V14.01,2013-11-15 06:07:00,
2013-11-14 23:12:00,19.7,12.1,29.95,NNW,335,7.0,7.0,72,0.00,,---,0.00,VWS V14.01,2013-11-15 06:12:00,
2013-11-14 23:17:00,19.3,12.4,29.94,NNW,335,8.0,8.0,74,0.00,,---,0.00,VWS V14.01,2013-11-15 06:17:00,
2013-11-14 23:22:00,19.3,12.4,29.94,NNW,336,5.0,5.0,74,0.00,,---,0.00,VWS V14.01,2013-11-15 06:22:00,
2013-11-14 23:27:00,19.5,12.6,29.94,NNW,336,0.0,3.0,74,0.00,,---,0.00,VWS V14.01,2013-11-15 06:27:00,
2013-11-14 23:32:00,19.9,12.3,29.94,NNW,336,0.0,0.0,72,0.00,,---,0.00,VWS V14.01,2013-11-15 06:32:00,
2013-11-14 23:37:00,20.1,12.5,29.94,NNW,336,0.0,0.0,72,0.00,,---,0.00,VWS V14.01,2013-11-15 06:37:00,
2013-11-14 23:42:00,19.8,12.6,29.94,NNW,335,0.0,0.0,73,0.00,,---,0.00,VWS V14.01,2013-11-15 06:42:00,
2013-11-14 23:47:00,19.6,12.7,29.94,NNW,336,0.0,0.0,74,0.00,,---,0.00,VWS V14.01,2013-11-15 06:47:00,
2013-11-14 23:52:00,19.3,12.7,29.94,NNW,336,0.0,1.0,75,0.00,,---,0.00,VWS V14.01,2013-11-15 06:52:00,
2013-11-14 23:57:00,19.0,12.4,29.94,NNW,335,2.0,3.0,75,0.00,,---,0.00,VWS V14.01,2013-11-15 06:57:00,